Weather History for KTBN - November, 2013

Change the Weather History Date:

Tuesday, November 19, 2013

  Actual Average Record
Temperature  
Mean Temperature 44 °F -  
Max Temperature 56 °F 53 °F 70 °F (2007)
Min Temperature 32 °F 38 °F 25 °F (2014)
Degree Days  
Heating Degree Days 21    
Moisture  
Dew Point 26 °F    
Average Humidity 56    
Maximum Humidity 90    
Minimum Humidity 22    
Precipitation  
Precipitation 0.00 in - - ()
Sea Level Pressure  
Sea Level Pressure 30.25 in    
Wind  
Wind Speed 6 mph (SE)    
Max Wind Speed 15 mph    
Max Gust Speed -    
Visibility 10 miles    
Events      
Averages and records for this station are not official NWS values.
T = Trace of Precipitation, MM = Missing Value Source: NWS Daily Summary

Daily Weather History Graph

Daily Weather History Graph

Search for Another Location

Airport or City:

Trip Planner

Search our weather history database for the weather conditions in past years. The results will help you decide how hot, cold, wet, or windy it might be!

Date:

Astronomy

Nov. 19, 2013 Rise Set
Actual Time 6:53 AM CST 4:54 PM CST
Civil Twilight 6:24 AM CST 5:22 PM CST
Nautical Twilight 5:53 AM CST 5:54 PM CST
Astronomical Twilight 5:21 AM CST 6:25 PM CST
Moon 6:46 PM CST (11/19) 8:32 AM CST (11/19)
Length of Visible Light 10h 57m
Length of Day
10h 01m
Waning Gibbous, 96% of the Moon is Illuminated
Nov 19
Waning Gibbous
Nov 25
Last Quarter
Dec 2
New
Dec 9
First Quarter
Dec 17
Full

Hourly Weather History & Observations

Time (CST) Temp. Windchill Dew Point Humidity Pressure Visibility Wind Dir Wind Speed Gust Speed Precip Events Conditions
12:58 AM 34.5 °F 31.6 °F 28.9 °F 80% 30.30 in 10.0 mi SE 3.5 mph - N/A   Clear
1:58 AM 34.9 °F - 29.1 °F 79% 30.29 in 10.0 mi East 2.3 mph - N/A   Clear
2:58 AM 32.7 °F - 29.3 °F 87% 30.30 in 10.0 mi SSW 2.3 mph - N/A   Clear
3:58 AM 33.6 °F - 29.8 °F 86% 30.30 in 8.0 mi Calm Calm - N/A   Clear
4:58 AM 34.3 °F - 30.0 °F 84% 30.31 in 10.0 mi East 2.3 mph - N/A   Clear
5:58 AM 32.5 °F 29.3 °F 30.0 °F 90% 30.31 in 10.0 mi SE 3.5 mph - N/A   Clear
6:58 AM 34.2 °F 29.0 °F 30.4 °F 86% 30.32 in 10.0 mi ESE 5.8 mph - N/A   Clear
7:58 AM 34.5 °F 29.4 °F 30.7 °F 86% 30.32 in 10.0 mi SE 5.8 mph - N/A   Clear
8:58 AM 37.2 °F 31.9 °F 30.7 °F 77% 30.33 in 10.0 mi SE 6.9 mph - N/A   Clear
9:58 AM 44.4 °F 40.0 °F 31.1 °F 60% 30.33 in 10.0 mi SE 8.1 mph - N/A   Partly Cloudy
10:58 AM 48.7 °F - 31.3 °F 51% 30.30 in 10.0 mi SE 10.4 mph - N/A   Scattered Clouds
11:58 AM 52.5 °F - 30.2 °F 42% 30.27 in 10.0 mi SE 10.4 mph - N/A   Partly Cloudy
12:58 PM 55.8 °F - 22.5 °F 28% 30.25 in 10.0 mi SE 13.8 mph - N/A   Partly Cloudy
1:58 PM 55.6 °F - 23.4 °F 29% 30.22 in 10.0 mi SSE 9.2 mph - N/A   Partly Cloudy
2:58 PM 56.8 °F - 20.1 °F 24% 30.20 in 10.0 mi ESE 10.4 mph - N/A   Partly Cloudy
3:58 PM 55.8 °F - 17.1 °F 22% 30.19 in 10.0 mi ESE 12.7 mph - N/A   Clear
4:58 PM 52.0 °F - 19.9 °F 28% 30.19 in 10.0 mi ESE 10.4 mph - N/A   Clear
5:58 PM 49.8 °F - 19.8 °F 31% 30.18 in 10.0 mi SE 10.4 mph - N/A   Clear
6:58 PM 45.5 °F 40.3 °F 21.6 °F 39% 30.18 in 10.0 mi SE 10.4 mph - N/A   Clear
7:58 PM 44.6 °F 39.7 °F 20.8 °F 39% 30.18 in 10.0 mi SE 9.2 mph - N/A   Clear
8:58 PM 43.3 °F 38.1 °F 23.0 °F 45% 30.18 in 10.0 mi SE 9.2 mph - N/A   Clear
9:58 PM 43.7 °F 37.7 °F 24.6 °F 47% 30.17 in 10.0 mi SE 11.5 mph - N/A   Overcast
10:58 PM 43.5 °F 36.4 °F 25.9 °F 50% 30.16 in 10.0 mi SE 15.0 mph - N/A   Overcast
11:58 PM 43.0 °F 36.0 °F 24.1 °F 47% 30.14 in 10.0 mi SE 13.8 mph - N/A   Overcast